United States

Ashburn, VA Weather Archive

Below you will find the last 24 hours of weather readings for Ashburn VA

Ashburn VA Today's Weather Data

Observed at: Ashburn, VA

Hour Observerd Temp Pressure Visibility Humidity Dew Point Wind
14:00 Partly Cloudy 39°F (3.9°C) 103.05 kPa 10 miles 46% 20°F (-6.7°C) 1 mph NE 40°2 mph
13:00 Partly Cloudy 38°F (3.3°C) 103.05 kPa 10 miles 48% 20.1°F (-6.6°C) 1 mph NE 34°2 mph
12:00 Partly Cloudy 38°F (3.3°C) 103.12 kPa 10 miles 47% 19.6°F (-6.9°C) 1 mph NNE 30°3 mph
11:00 Mostly Cloudy 36°F (2.2°C) 103.25 kPa 10 miles 49% 18.7°F (-7.4°C) 1 mph NNE 31°5 mph
10:00 Mostly Cloudy 35°F (1.7°C) 103.25 kPa 10 miles 51% 18.7°F (-7.4°C) 1 mph NNW 348°6 mph
09:00 Mostly Cloudy 34°F (1.1°C) 103.25 kPa 10 miles 56% 20°F (-6.7°C) 1 mph W 270°2 mph
08:00 Partly Cloudy 33°F (0.6°C) 103.28 kPa 10 miles 57% 19.5°F (-7°C) 1 mph NNE 12°3 mph
07:00 Fair 32°F (0°C) 103.25 kPa 10 miles 64% 21.2°F (-6°C) 1 mph SW 236°2 mph
06:00 Fair 33°F (0.6°C) 103.15 kPa 10 miles 64% 22.2°F (-5.5°C) 1 mph NE 36°3 mph
05:00 Fair 31°F (-0.6°C) 103.12 kPa 10 miles 65% 20.6°F (-6.3°C) 1 mph W 270°2 mph
04:00 Fair 35°F (1.7°C) 103.08 kPa 10 miles 60% 22.5°F (-5.3°C) 1 mph E 90°2 mph
03:00 Fair 35°F (1.7°C) 103.08 kPa 10 miles 60% 22.5°F (-5.3°C) 1 mph E 90°2 mph
02:00 Fair 29°F (-1.7°C) 103.08 kPa 10 miles 68% 19.8°F (-6.8°C) 1 mph W 270°
01:00 Fair 31°F (-0.6°C) 103.08 kPa 10 miles 65% 20.6°F (-6.3°C) 1 mph SW 225°
00:00 Fair 35°F (1.7°C) 103.05 kPa 10 miles 57% 21.3°F (-5.9°C) 1 mph W 270°2 mph
23:00 Fair 37°F (2.8°C) 103.08 kPa 10 miles 51% 20.6°F (-6.3°C) 1 mph E 90°2 mph
22:00 Fair 37°F (2.8°C) 103.08 kPa 10 miles 50% 20.1°F (-6.6°C) 1 mph NNE 33°
21:00 Fair 40°F (4.4°C) 103.05 kPa 10 miles 44% 19.9°F (-6.7°C) 1 mph NNE 25°2 mph
20:00 Fair 44°F (6.7°C) 103.05 kPa 10 miles 40% 21.3°F (-6°C) 1 mph NE 42°3 mph
19:00 Fair 46°F (7.8°C) 102.95 kPa 10 miles 38% 21.8°F (-5.6°C) 1 mph NE 34°2 mph
18:00 Fair 49°F (9.4°C) 102.95 kPa 10 miles 34% 21.9°F (-5.6°C) 2 mph NNE 24°4 mph
17:00 Fair 51°F (10.6°C) 102.84 kPa 10 miles 34% 23.6°F (-4.6°C) 2 mph NNE 30°5 mph
16:00 Fair 52°F (11.1°C) 102.78 kPa 10 miles 32% 23.1°F (-5°C) 2 mph NNE 29°7 mph
15:00 Fair 51°F (10.6°C) 102.68 kPa 10 miles 35% 24.3°F (-4.3°C) 2 mph NE 43°7 mph